{"data":{"norad_id":56389,"epoch":"2026-09-20T10:50:45.341088Z","epoch_age_seconds":116150,"freshness":"FRESH","line1":"1 56389U 23061R   26263.45191367 -.00000068  00000+0  70350-5 0  9992","line2":"2 56389  43.0002 178.1818 0000722 249.8336 110.2438 15.27577805186531","mean_motion":15.27577805,"eccentricity":7.22e-5,"inclination_deg":43.0002,"raan_deg":178.1818,"arg_perigee_deg":249.8336,"mean_anomaly_deg":110.2438,"bstar":7.035e-6,"rev_number":18653,"period_min":94.26688416699,"perigee_km":482.56029055649,"apogee_km":483.55104677785,"semimajor_km":6861.1926686672,"source":"CELESTRAK","updated_at":"2026-09-21T09:00:33.433014Z"}}